Regional Weather Roundup
Issued by NWS Charleston, SC

Current Version | Previous Version | Text Only | Print | Product List | Glossary Off
Versions: 1 2 3 4 5 6 7 8 9 10 11 12 13 14 15 16 17 18 19 20 21 22 23 24 25 26 27 28 29 30 31 32 33 34 35 36 37 38 39 40 41 42 43 44 45 46 47 48 49 50
000 ASUS42 KCHS 221225 RWRCHS REGIONAL WEATHER ROUNDUP NATIONAL WEATHER SERVICE CHARLESTON SC 800 AM EDT MON SEP 22 2014 NOTE: "FAIR" INDICATES FEW OR NO CLOUDS BELOW 12,000 FEET WITH NO SIGNIFICANT WEATHER AND/OR OBSTRUCTIONS TO VISIBILITY. NOT ALL STATIONS ARE QUALITY CONTROLLED BY THE NATIONAL WEATHER SERVICE. USE DATA WITH CAUTION...ESPECIALLY DEWPOINT OBSERVATIONS. SCZ027-030-031-034>040-042>050-221300- ...SOUTH CAROLINA... CITY SKY/WX TMP DP RH WIND PRES REMARKS N CHARLESTON MOSUNNY 72 62 71 W6 29.99R 6HR MIN TEMP: 70; 6HR MAX TEMP: 74; WATERFRONT PRK N/A 73 N/A N/A SW6 N/A FORT JOHNSON NOT AVBL MOUNT PLEASANT FAIR 73 64 73 W6 30.00R JOHNS ISLAND SUNNY 72 68 88 CALM 30.00R PINOPOLIS N/A 72 64 78 SW8 29.91R MONCKS CORNER N/A 72 66 83 CALM 29.99R SUMMERVILLE CLOUDY 68 66 94 S3 30.00R BEAUFORT MCAS CLEAR 70 64 81 VRB3 30.00R 6HR MIN TEMP: 67; 6HR MAX TEMP: 72; BEAUFORT ARPT FAIR 72 64 78 SW6 30.01R HILTON HEAD IS CLEAR 72 64 78 SW6 30.01R GEORGETOWN NOT AVBL WALTERBORO MOSUNNY 70 70 100 SW5 30.01R ORANGEBURG PTCLDY 71 63 75 SW5 30.00R 6HR MIN TEMP: 70; 6HR MAX TEMP: 72; BARNWELL FAIR 72 64 78 CALM 30.01R AIKEN FAIR 70 70 100 S3 30.05R MANNING CLOUDY 73 66 78 CALM 30.00R KINGSTREE NOT AVBL COLUMBIA MOCLDY 70 67 90 NW3 29.99R 6HR MIN TEMP: 70; 6HR MAX TEMP: 77; 6HR PCP: 0.03; SUMTER CLOUDY 69 67 92 N8 29.98R 6HR MIN TEMP: 69; 6HR MAX TEMP: 74; 6HR PCP: 0.05; FLORENCE CLOUDY 73 65 75 NW8 29.99R 6HR MIN TEMP: 70; 6HR MAX TEMP: 74; MYRTLE BEACH MOSUNNY 72 63 73 NW7 29.97R N MYRTLE BEACH SUNNY 72 64 76 W3 29.97R 6HR MIN TEMP: 71; 6HR MAX TEMP: 76; $$ GAZ063-065-086>088-099>101-113>116-118-119-134-136>141-150-221300- ...GEORGIA... CITY SKY/WX TMP DP RH WIND PRES REMARKS SAVANNAH ARPT PTCLDY 68 61 78 SW3 30.01R 6HR MIN TEMP: 66; 6HR MAX TEMP: 71; HUNTER AAF CLEAR 67 63 85 SW3 29.99R 6HR MIN TEMP: 66; 6HR MAX TEMP: 71; FORT STEWART CLEAR 65 61 88 SE1 30.00R 6HR MIN TEMP: 63; 6HR MAX TEMP: 70; STATESBORO NOT AVBL SYLVANIA PTSUNNY 71 69 93 CALM 30.03R CLAXTON FAIR N/A N/A N/A CALM 30.02R THOMSON CLOUDY 71 69 93 CALM 30.06R AUGUSTA-BUSH MOCLDY 69 64 84 S3 29.99R 6HR MIN TEMP: 67; 6HR MAX TEMP: 73; AUGUSTA-DANIEL MOCLDY 73 63 70 CALM 30.01R SWAINSBORO FAIR 72 66 83 CALM 30.02R VIDALIA CLEAR 68 63 83 SW3 30.03R ALMA CLEAR 63 60 90 CALM 30.02R 6HR MIN TEMP: 59; 6HR MAX TEMP: 66; WAYCROSS NOT AVBL JESUP FAIR 64 63 94 CALM 30.03R BRUNSWICK CLEAR 68 64 88 W3 30.03R SAINT SIMONS CLEAR 71 66 84 W7 30.02R 6HR MIN TEMP: 68; 6HR MAX TEMP: 73; $$ SCZ027-028-034-036>038-045-046-048>050-GAZ119-141-221300- ...LAKE AND SUPPLEMENTAL COASTAL OBSERVATIONS... STATION/POSITION TIME TEMP WIND PRES WAVE SWELL AIR SEA DIR/SP/G HT/PER HT/PER/DIR (UTC) (F) (DEG/KT/KT) (MB) (FT/S) (FT/S/D) UPR LAKE MARION NOT AVBL WINYAH BAY 1200 73 260/ 7 1014.0S LAKE MURRAY 1100 71 360/ 2/ 5 1014.9R ACE BASIN NERRS 1200 69 CALM 1016.0R FORT PULASKI 1200 73 210/ 5/ 8 1016.4R SAPELO ISLAND 1200 71 220/ 5 1017.0R $$ ANZ835-935-AMZ111-154-330-350-352-354-374-450-454-472-221300- ...C-MAN AND BUOY OBSERVATIONS... STATION/POSITION TIME TEMP WIND PRES WAVE SWELL AIR SEA DIR/SP/G HT/PER HT/PER/DIR (UTC) (F) (DEG/KT/KT) (MB) (FT/S) (FT/S/D) FOLLY BEACH CMAN 1200 73 260/ 5/ 7 1016.3R BUOY 41004 1200 81 81 260/ 16/ 17 1015.0R 5/ 5 2/ 9 BUOY 41008 1200 79 83 240/ 14/ 16 1015.9R 2/ 4 2/ 80/ 9 5E ST. MARYS GA 1200 82 N/A 2/10 FRYING PAN BUOY NOT AVBL BUOY 41025 1200 79 270/ 14/ 17 1013.5R 7/ 9 3/130/ 9 CAPE LOOKOUT NC 1200 76 290/ 11/ 13 1014.2R BUOY 41002 1121 80 81 290/ 10/ 12 1017.0R 5/ 6 5/280/ 6 BUOY 41010 1200 81 84 300/ 2/ 4 1016.7R 4/10 3/ 20/10 BUOY 41012 NOT AVBL ST AUGUSTINE FL 1200 72 240/ 4/ 4 1017.4R CAPERS NEARSHORE 1100 77 270/ 14/ 16 N/A FRIPP NEARSHORE NOT AVBL $$

USA.gov is the U.S. government's official web portal to all federal, state and local government web resources and services.